ONEWEB-0230 (48769 NORAD) Tracking and Keplerian Element Data

This shows tracking and keplerian element data for the satellite.

Feedback or suggestion? Click here.




ElementValue
Catalog48769
NameONEWEB-0230
Epoch Orbit358
Epoch Day214.91667824
Epoch Year2021
RAAN254.6255
Inclination87.7626
Eccentricity0.0008492
Argument of Perigee41.0183
Mean Anonmoly129.092
Mean Motion14.69872927
Decay Rate-0.01055661
L11 48769U 21045C 21214.91667824 -.01055661 00000-0 -18942+0 0 9998
L22 48769 87.7626 254.6255 0008492 41.0183 129.0920 14.69872927 3585

Live tracking and technical data element details for ONEWEB-0230 (NORAD 48769). ONEWEB-0230 can be tracked NOW for your location showing map with azimuth and elevation plus other details from your city location.

Track the satellite on the map from your city or location and see movement details for azimuth, elevation, latitude, longitude, range, height, and movement on the map or in text.







IsCatalogInMostPopularTable: catalog: 48769, numindb: 14
Update: records affected: 1



GetName: 48769 ONEWEB-0230

Hit Count: updated at: Tue, 03 Aug 2021 19:37:54 GMT